Home > Weather > Adelaide > Past weeks

Flag for Australia Past Weather in Adelaide, South Australia, Australia — Yesterday and Last 2 Weeks

Now
54 °F

Passing clouds.


Feels Like: 50 °F
Forecast: 44 / 58 °F
Wind: 10 mph from West

Location: Adelaide Airport

Current Time: Jul 28, 2016 at 8:14:42 PM

Latest Report: Jul 28, 2016 at 7:30 PM


Visibility: N/A

Pressure: 30.33 "Hg

Humidity: 77%

Dew Point: 46 °F

Location of AdelaideLocation

Past Weather in Adelaide — Graph

°F

Adelaide Temperature Yesterday

Maximum temperature yesterday: 55 °F (at 11:00 AM)
Minimum temperature yesterday: 52 °F (at 12:00 AM)
Average temperature yesterday: 54 °F

High & Low Weather Summary for the Past Weeks

 TemperatureHumidityPressure
High72 °F (Jul 21, 1:30 PM)100% (Jul 19, 3:20 AM)30.54 "Hg (Jul 19, 3:20 AM)
Low37 °F (Jul 16, 4:30 AM)39% (Jul 16, 3:30 PM)29.53 "Hg (Jul 22, 1:30 PM)
Average54 °F74%30.10 "Hg
* Reported Jul 13 6:30 PM — Jul 28 6:30 PM, Adelaide, Weather by CustomWeather, © 2016

Note: Actual official high and low records may vary slightly from our data, if they occured in-between our weather recording intervals... More about our weather records

Advertising

Adelaide Weather History for the Previous 24 Hours

Scroll right to see more
 ConditionsComfort  
Time TempWeatherWind HumidityBarometerVisibility
6:30 PM
Thu, Jul 28
54 °FPassing clouds.8 mph82%30.33 "HgN/A
6:00 PM55 °FPassing clouds.9 mph77%30.33 "HgN/A
5:30 PM55 °FPassing clouds.10 mph77%30.33 "HgN/A
5:00 PM55 °FPartly sunny.10 mph77%30.33 "HgN/A
4:30 PM55 °FPartly sunny.12 mph77%30.33 "HgN/A
4:00 PM55 °FPartly sunny.10 mph77%30.33 "HgN/A
3:30 PM55 °FPartly sunny.12 mph72%30.33 "HgN/A
3:00 PM55 °FPartly sunny.14 mph77%30.33 "HgN/A
2:30 PM55 °FPartly sunny.12 mph77%30.33 "HgN/A
2:00 PM55 °FPartly sunny.10 mph77%30.33 "HgN/A
1:30 PM55 °FBroken clouds.10 mph82%30.33 "HgN/A
1:00 PM55 °FPartly sunny.10 mph82%30.33 "HgN/A
12:30 PM55 °FPartly sunny.12 mph82%30.36 "HgN/A
11:30 AM55 °FBroken clouds.13 mph82%30.39 "HgN/A
11:00 AM55 °FPartly sunny.12 mph82%30.39 "HgN/A
10:30 AM55 °FPartly sunny.10 mph82%30.39 "HgN/A
10:00 AM55 °FPartly sunny.13 mph82%30.39 "HgN/A
9:30 AM54 °FPartly sunny.13 mph88%30.39 "HgN/A
9:00 AM54 °FPartly sunny.10 mph88%30.39 "HgN/A
8:30 AM54 °FPartly sunny.9 mph88%30.39 "HgN/A
8:00 AM52 °FPartly sunny.10 mph88%30.36 "HgN/A
7:30 AM54 °FPartly sunny.7 mph82%30.36 "HgN/A
6:30 AM52 °FPassing clouds.7 mph94%30.36 "HgN/A
5:30 AM54 °FPassing clouds.9 mph82%30.33 "HgN/A
5:00 AM54 °FPassing clouds.12 mph82%30.33 "HgN/A
4:30 AM54 °FPassing clouds.12 mph77%30.33 "HgN/A
4:00 AM54 °FPassing clouds.13 mph72%30.33 "HgN/A
3:30 AM54 °FPassing clouds.9 mph77%30.33 "HgN/A
3:00 AM54 °FPassing clouds.12 mph77%30.33 "HgN/A
2:30 AM54 °FPassing clouds.12 mph82%30.33 "HgN/A
2:00 AM54 °FPassing clouds.9 mph77%30.33 "HgN/A
1:30 AM54 °FPassing clouds.13 mph77%30.33 "HgN/A
1:00 AM54 °FPassing clouds.10 mph77%30.33 "HgN/A
12:30 AM54 °FPassing clouds.10 mph77%30.33 "HgN/A
12:00 AM55 °FPassing clouds.13 mph67%30.33 "HgN/A
11:30 PM
Wed, Jul 27
54 °FPassing clouds.12 mph77%30.33 "HgN/A
11:00 PM54 °FPassing clouds.10 mph77%30.33 "HgN/A
10:30 PM54 °FPassing clouds.9 mph77%30.33 "HgN/A
10:00 PM54 °FPassing clouds.9 mph77%30.33 "HgN/A
9:30 PM54 °FPassing clouds.8 mph77%30.33 "HgN/A
9:00 PM54 °FPartly cloudy.13 mph72%30.33 "HgN/A
8:30 PM54 °FPassing clouds.12 mph77%30.33 "HgN/A
8:00 PM54 °FPassing clouds.9 mph77%30.33 "HgN/A
Weather by CustomWeather, © 2016

See weather overviewHow to use our weather pages